This is the latest recevied weather packets stored in our database for station/object KG0HG. If no packets are shown the sender has not sent any weather packets the latest 10 day(s).
| Time | Temp. | Humidity | Pressure | Rain* | Wind** | Luminosity | Snow |
|---|---|---|---|---|---|---|---|
| 1778069790 | 7.78° C | 94% | 1016.9 hPa | 0 mm | - | 19 W/m² | - |
| 1778069486 | 7.78° C | 94% | 1016.8 hPa | 0 mm | - | 12 W/m² | - |
| 1778069185 | 7.78° C | 94% | 1016.5 hPa | 0 mm | - | 20 W/m² | - |
| 1778068881 | 7.78° C | 94% | 1016.8 hPa | 0 mm | - | 11 W/m² | - |
| 1778068580 | 7.78° C | 94% | 1016.6 hPa | 0 mm | - | 10 W/m² | - |
| 1778068278 | 7.78° C | 93% | 1016.6 hPa | 0 mm | - | 14 W/m² | - |
| 1778067975 | 7.78° C | 93% | 1016.5 hPa | 0 mm | - | 4 W/m² | - |
| 1778067673 | 7.78° C | 92% | 1016.5 hPa | 0 mm | - | 2 W/m² | - |
| 1778067371 | 7.78° C | 91% | 1016.2 hPa | 0 mm | - | 0 W/m² | - |
| 1778067068 | 7.78° C | 90% | 1016.4 hPa | 0 mm | - | 0 W/m² | - |
| 1778066764 | 7.78° C | 90% | 1016.2 hPa | 0 mm | - | 0 W/m² | - |
| 1778066462 | 7.78° C | 89% | 1016.7 hPa | 0 mm | - | 0 W/m² | - |
| 1778066159 | 8.33° C | 88% | 1016.7 hPa | 0 mm | - | 0 W/m² | - |
| 1778065856 | 7.78° C | 88% | 1016.8 hPa | 0 mm | - | 0 W/m² | - |
| 1778065554 | 7.78° C | 88% | 1017.2 hPa | 0 mm | - | 0 W/m² | - |
| 1778065251 | 7.78° C | 89% | 1016.9 hPa | 0 mm | - | 0 W/m² | - |
| 1778064947 | 7.78° C | 89% | 1016.8 hPa | 0 mm | - | 0 W/m² | - |
| 1778064645 | 7.78° C | 89% | 1016.9 hPa | 0 mm | - | 0 W/m² | - |
| 1778064343 | 7.78° C | 90% | 1016.9 hPa | 0 mm | - | 0 W/m² | - |
| 1778064040 | 7.78° C | 90% | 1016.7 hPa | 0 mm | - | 0 W/m² | - |
| 1778063737 | 7.78° C | 91% | 1016.9 hPa | 0 mm | - | 0 W/m² | - |
| 1778063434 | 7.78° C | 93% | 1017 hPa | 0 mm | - | 0 W/m² | - |
| 1778063132 | 7.22° C | 93% | 1016.6 hPa | 0 mm | - | 0 W/m² | - |
| 1778062829 | 7.78° C | 94% | 1016.4 hPa | 0 mm | - | 0 W/m² | - |
| 1778062526 | 7.22° C | 94% | 1016.2 hPa | 0 mm | - | 0 W/m² | - |
* Rain latest hour (hover to see other rain measurements)
** Current wind speed in m/s (hover to see current wind gust speed)